Zurück zum Katalog

KUIPER-00433

AktivKommunikationLEO
NORAD 68869·PAYLOAD·🇺🇸 United States

Gestartet Apr 28, 2026 von Cape Canaveral Space Force Station

Loading…

Nächste Überflüge (nächste 24 Stunden)

TLE

AktuellSource: CelesTrak SupGP

Epoche: Sep 14, 2026, 21:31 UTC

1 68869C 26095F   26257.89665509  .00001746  00000+0  22858-3 0  2571
2 68869  51.8995 216.4636 0001012  50.6042  59.1250 14.79921143    19

Verfolge KUIPER-00433 in Echtzeit mit AllMySat

Download on the App Store